[[{"header":{"parameterUnit":"m.s-1","parameterCategory":1,"la1":30.2991,"la2":30.254,"lo1":-89.0895,"lo2":-89.0444,"dx":0.0017,"dy":0.0017,"nx":28,"ny":28,"refTime":"2022-11-12T09:00:00:Z","depth":0,"parameterNumber":2,"parameterNumberName":"U-component_of_WINDS"},"data":[0,0,0,0,0,0,0,0,0,0,0,0,0,0,0,0,0,0,0,0,0,0,0,0,0,0,0,0,0,0,0,0,0,0,0,0,0,0,0,0,0,0,0,0,0,0,0,0,0,0,0,0,0,0,0,0,0,0,-0.4233,-0.4233,0,-0.4256,-0.4256,-0.4256,-0.425,-0.425,-0.425,-0.4249,-0.4273,-0.4274,-0.4275,0,0,0,0,0,0,0,0,0,0,0,0,0,-0.4185,-0.4186,-0.4233,-0.4233,-0.4234,-0.4256,-0.4256,-0.4256,-0.4251,-0.425,-0.4249,-0.4249,-0.4272,-0.4273,-0.4275,0,0,0,0,0,0,0,0,0,0,0,0,0,-0.4207,-0.4186,-0.4233,-0.4233,-0.4234,-0.4256,-0.4256,-0.4256,-0.4251,-0.425,-0.4249,-0.4249,-0.4272,-0.4273,-0.4275,-0.4298,0,0,-0.428,-0.428,0,0,0,0,0,0,0,0,-0.4205,-0.4208,-0.4233,-0.4234,-0.4234,-0.425,-0.4247,-0.427,-0.4251,-0.4244,-0.4249,-0.4248,-0.4265,-0.4267,-0.4273,-0.4299,-0.43,-0.428,-0.4281,-0.4281,-0.4282,0,0,0,0,0,0,0,-0.4204,-0.4207,-0.4242,-0.4234,-0.4234,-0.4232,-0.4235,-0.4252,-0.4258,-0.4245,-0.4244,-0.4247,-0.4266,-0.4272,-0.4274,-0.43,-0.428,-0.4281,-0.4282,-0.4283,-0.4345,-0.4346,0,0,0,0,0,0,-0.4202,-0.4206,-0.4241,-0.4243,-0.4218,-0.4234,-0.4236,-0.4245,-0.4258,-0.4259,-0.4248,-0.4247,-0.4269,-0.4272,-0.4274,-0.4302,-0.4281,-0.4283,-0.4284,-0.4344,-0.4345,-0.4346,0,0,0,0,0,0,-0.4201,-0.4205,-0.424,-0.4224,-0.4229,-0.4235,-0.4245,-0.4246,-0.4252,-0.426,-0.4261,-0.4253,-0.4269,-0.4272,-0.4292,-0.4303,-0.4283,-0.4285,-0.4343,-0.4344,-0.4345,-0.4357,0,0,0,0,0,0,-0.42,-0.4205,-0.4214,-0.4225,-0.423,-0.4258,-0.4246,-0.4247,-0.4255,-0.4254,-0.4265,-0.4267,-0.4269,-0.429,-0.4293,-0.4304,-0.4286,-0.4342,-0.4344,-0.4345,-0.4356,-0.4358,-0.4361,0,0,0,0,0,-0.4198,-0.4216,-0.4214,-0.4219,-0.4241,-0.4258,-0.4261,-0.4263,-0.4256,-0.4265,-0.427,-0.4266,-0.4301,-0.4292,-0.4296,-0.4308,-0.4342,-0.4343,-0.4345,-0.4355,-0.4358,-0.4361,0,0,0,0,0,0,-0.4207,-0.4218,-0.4216,-0.4238,-0.4247,-0.4257,-0.4269,-0.4266,-0.4278,-0.4277,-0.4278,-0.4281,-0.4301,-0.4306,-0.4296,-0.433,-0.432,-0.4323,-0.4326,-0.4329,-0.4331,-0.433,-0.4287,0,0,0,0,0,-0.4212,-0.4225,-0.4234,-0.4253,-0.4257,-0.4262,-0.427,-0.427,-0.428,-0.4284,-0.429,-0.43,-0.4312,-0.4321,-0.4333,-0.4356,-0.4358,-0.4366,-0.4369,-0.4371,-0.4373,-0.4385,-0.4388,-0.4351,-0.4351,-0.4351,0,0,-0.4222,-0.4229,-0.4238,-0.4255,-0.4262,-0.4275,-0.4266,-0.428,-0.429,-0.4286,-0.4305,-0.431,-0.432,-0.4341,-0.4351,-0.4346,-0.4383,-0.4373,-0.4374,-0.4375,-0.4387,-0.439,-0.4393,-0.4352,-0.4352,-0.4352,0,0,-0.4247,-0.4254,-0.427,-0.4277,-0.4288,-0.4291,-0.4295,-0.4305,-0.4308,-0.4326,-0.4323,-0.4335,-0.4357,-0.4365,-0.4371,-0.4398,-0.4395,-0.4401,-0.4415,-0.4426,-0.4429,-0.4432,-0.4441,-0.4444,-0.4404,-0.4404,-0.4404,0,-0.4258,-0.4278,-0.4279,-0.4294,-0.4301,-0.4297,-0.4314,-0.4321,-0.4335,-0.434,-0.4334,-0.4362,-0.4368,-0.4391,-0.4397,-0.4403,-0.4407,-0.4401,-0.4429,-0.4431,-0.4434,-0.4443,-0.4446,-0.4404,-0.4404,-0.4404,-0.4404,0,-0.4291,-0.4305,-0.4317,-0.433,-0.4339,-0.4355,-0.4358,-0.4366,-0.4366,-0.4369,-0.4388,-0.4395,-0.4409,-0.4414,-0.4414,-0.4437,-0.4433,-0.4428,-0.4418,-0.4438,-0.4446,-0.445,-0.4406,-0.4405,-0.4405,-0.4405,0,0,-0.4324,-0.4336,-0.4341,-0.4347,-0.4357,-0.4368,-0.4383,-0.4396,-0.4404,-0.4413,-0.4426,-0.4444,-0.4439,-0.4446,-0.4447,-0.4457,-0.4477,-0.445,-0.4451,-0.4455,-0.4502,-0.4506,-0.451,-0.4475,-0.4475,-0.4476,-0.4501,0,-0.435,-0.4376,-0.4377,-0.4401,-0.4414,-0.441,-0.4423,-0.4431,-0.4434,-0.4445,-0.4448,-0.4461,-0.4454,-0.4458,-0.4468,-0.4472,-0.4486,-0.447,-0.4486,-0.4487,-0.4484,-0.4514,-0.4519,-0.4542,-0.4504,-0.4505,-0.4505,0,-0.4384,-0.4394,-0.442,-0.4428,-0.4433,-0.4445,-0.4457,-0.4467,-0.4476,-0.4477,-0.4485,-0.4484,-0.4499,-0.4488,-0.4508,-0.4498,-0.4504,-0.4507,-0.4508,-0.451,-0.4498,-0.4517,-0.455,-0.4554,-0.451,-0.451,-0.451,0,-0.4405,-0.4425,-0.4443,-0.4448,-0.4458,-0.4467,-0.4471,-0.4479,-0.4486,-0.4496,-0.4501,-0.4512,-0.4519,-0.4528,-0.4529,-0.4521,-0.4549,-0.4539,-0.4551,-0.4551,-0.4558,-0.4558,-0.4592,-0.4561,-0.4561,-0.4561,-0.4561,0,-0.4435,-0.4451,-0.4453,-0.4464,-0.4481,-0.4481,-0.4498,-0.4502,-0.4509,-0.452,-0.4517,-0.4528,-0.4529,-0.454,-0.4541,-0.4558,-0.4561,-0.4562,-0.4562,-0.4563,-0.4563,-0.4567,-0.4566,-0.4562,-0.4562,-0.4562,-0.4562,0,-0.4462,-0.4464,-0.4483,-0.4491,-0.4493,-0.4505,-0.4512,-0.4522,-0.4524,-0.4539,-0.4542,-0.4546,-0.4559,-0.4561,-0.4575,-0.4576,-0.4596,-0.4594,-0.4593,-0.4593,-0.4605,-0.4604,-0.4645,-0.465,-0.4615,-0.4616,-0.4616,0,-0.4481,-0.4493,-0.4501,-0.4509,-0.4513,-0.4525,-0.4533,-0.4533,-0.4541,-0.4551,-0.456,-0.4572,-0.4582,-0.4602,-0.4606,-0.4617,-0.4616,-0.4629,-0.4617,-0.4617,-0.4616,-0.4615,-0.4616,-0.4632,-0.4632,-0.4632,-0.4632,0,-0.4514,-0.4514,-0.4525,-0.4536,-0.4544,-0.4553,-0.4561,-0.4567,-0.4568,-0.4577,-0.459,-0.4597,-0.4612,-0.4624,-0.4635,-0.4639,-0.4636,-0.4636,-0.4639,-0.464,-0.4639,-0.464,-0.46,-0.4635,-0.4635,-0.4635,-0.4635,-0.4634,-0.4538,-0.4548,-0.4555,-0.4567,-0.4573,-0.458,-0.459,-0.4593,-0.4604,-0.4616,-0.4615,-0.4629,-0.4636,-0.465,-0.4655,-0.4666,-0.4662,-0.4667,-0.4668,-0.4669,-0.4671,-0.4637,-0.4668,-0.4668,-0.4668,-0.4668,-0.4668,0,-0.4571,-0.4575,-0.4586,-0.4597,-0.4606,-0.4601,-0.461,-0.4618,-0.463,-0.4637,-0.4646,-0.4661,-0.4672,-0.4676,-0.4687,-0.4695,-0.4694,-0.4698,-0.4697,-0.4698,-0.4674,-0.467,-0.4699,-0.4699,-0.4699,-0.4699,-0.4699,-0.4699,-0.4589,-0.4606,-0.4607,-0.4626,-0.463,-0.4644,-0.4649,-0.4656,-0.4661,-0.4677,-0.4686,-0.4689,-0.4695,-0.4706,-0.4716,-0.4717,-0.4721,-0.4726,-0.4726,-0.4703,-0.47,-0.4697,-0.4694,-0.4727,-0.4727,-0.475,-0.475,-0.475]},{"header":{"parameterUnit":"m.s-1","parameterCategory":1,"la1":30.2991,"la2":30.254,"lo1":-89.0895,"lo2":-89.0444,"dx":0.0017,"dy":0.0017,"nx":28,"ny":28,"refTime":"2022-11-12T09:00:00:Z","depth":0,"parameterNumber":3,"parameterNumberName":"V-component_of_WINDS"},"data":[0,0,0,0,0,0,0,0,0,0,0,0,0,0,0,0,0,0,0,0,0,0,0,0,0,0,0,0,0,0,0,0,0,0,0,0,0,0,0,0,0,0,0,0,0,0,0,0,0,0,0,0,0,0,0,0,0,0,-6.097,-6.0971,0,-6.1056,-6.1057,-6.1058,-6.1028,-6.1027,-6.1025,-6.1023,-6.1104,-6.1108,-6.1112,0,0,0,0,0,0,0,0,0,0,0,0,0,-6.0776,-6.078,-6.097,-6.0971,-6.0972,-6.1056,-6.1057,-6.1058,-6.1029,-6.1027,-6.1024,-6.1022,-6.1103,-6.1108,-6.1112,0,0,0,0,0,0,0,0,0,0,0,0,0,-6.0861,-6.0781,-6.097,-6.0968,-6.0969,-6.1056,-6.1057,-6.1058,-6.1029,-6.1026,-6.1024,-6.1021,-6.1102,-6.1107,-6.1113,-6.1205,0,0,-6.1131,-6.1134,0,0,0,0,0,0,0,0,-6.0856,-6.0868,-6.0967,-6.0968,-6.0969,-6.1029,-6.1018,-6.1107,-6.103,-6.1006,-6.1023,-6.102,-6.1081,-6.1089,-6.111,-6.1209,-6.1212,-6.1132,-6.1135,-6.1138,-6.1139,0,0,0,0,0,0,0,-6.085,-6.0864,-6.1004,-6.0969,-6.097,-6.0961,-6.097,-6.1035,-6.1058,-6.1008,-6.1006,-6.1017,-6.1081,-6.1105,-6.1112,-6.1214,-6.1131,-6.1137,-6.114,-6.1142,-6.1393,-6.1396,0,0,0,0,0,0,-6.0845,-6.086,-6.1001,-6.1006,-6.0905,-6.0967,-6.0977,-6.1012,-6.1057,-6.1062,-6.1019,-6.1015,-6.1096,-6.1105,-6.1115,-6.1226,-6.1138,-6.1143,-6.1146,-6.139,-6.1393,-6.1397,0,0,0,0,0,0,-6.0841,-6.0858,-6.0998,-6.0933,-6.095,-6.0973,-6.1013,-6.1016,-6.1039,-6.1066,-6.1069,-6.104,-6.1094,-6.1107,-6.1184,-6.1229,-6.1146,-6.1151,-6.1386,-6.1391,-6.1395,-6.1449,0,0,0,0,0,0,-6.0835,-6.0856,-6.0893,-6.0934,-6.0953,-6.1067,-6.1016,-6.1019,-6.105,-6.1046,-6.1086,-6.109,-6.1093,-6.1175,-6.1189,-6.1235,-6.1156,-6.1382,-6.1388,-6.1394,-6.1444,-6.1455,-6.1465,0,0,0,0,0,-6.0828,-6.0903,-6.0895,-6.0912,-6.1,-6.1069,-6.108,-6.1084,-6.1054,-6.109,-6.1107,-6.1089,-6.1222,-6.1183,-6.1199,-6.1247,-6.1379,-6.1386,-6.1393,-6.1439,-6.1453,-6.1465,0,0,0,0,0,0,-6.0864,-6.0908,-6.09,-6.099,-6.1027,-6.1064,-6.111,-6.1099,-6.1143,-6.1137,-6.1138,-6.1148,-6.1227,-6.1245,-6.1201,-6.1339,-6.1296,-6.1306,-6.1325,-6.1339,-6.1349,-6.1343,-6.116,0,0,0,0,0,-6.0883,-6.0938,-6.0973,-6.1049,-6.1068,-6.1086,-6.1116,-6.1117,-6.1154,-6.1168,-6.1191,-6.1226,-6.1275,-6.1308,-6.1355,-6.1446,-6.1454,-6.1487,-6.1498,-6.1507,-6.1516,-6.1566,-6.1581,-6.142,-6.142,-6.142,0,0,-6.0921,-6.0952,-6.0986,-6.1057,-6.1085,-6.1141,-6.1099,-6.1159,-6.12,-6.1176,-6.1251,-6.1269,-6.1308,-6.1393,-6.1431,-6.141,-6.1562,-6.1516,-6.1523,-6.1527,-6.1575,-6.159,-6.1603,-6.1425,-6.1424,-6.1423,0,0,-6.102,-6.1049,-6.1117,-6.1147,-6.1191,-6.1203,-6.1219,-6.1259,-6.1271,-6.1347,-6.1331,-6.1378,-6.1464,-6.1493,-6.1518,-6.163,-6.1614,-6.1645,-6.1702,-6.175,-6.1763,-6.1774,-6.1814,-6.1829,-6.1654,-6.1654,-6.1654,0,-6.1062,-6.1147,-6.1152,-6.1215,-6.1246,-6.123,-6.1298,-6.1326,-6.1382,-6.1404,-6.138,-6.1488,-6.1513,-6.1604,-6.1632,-6.1653,-6.1671,-6.164,-6.1761,-6.1772,-6.1783,-6.1821,-6.1836,-6.1658,-6.1657,-6.1657,-6.1656,0,-6.1196,-6.1255,-6.1304,-6.1362,-6.1398,-6.1463,-6.1477,-6.1513,-6.1511,-6.1525,-6.1602,-6.1631,-6.1685,-6.1707,-6.1703,-6.1798,-6.1784,-6.1761,-6.1717,-6.1802,-6.1838,-6.1852,-6.1663,-6.1661,-6.166,-6.1659,0,0,-6.1318,-6.138,-6.1398,-6.1425,-6.1473,-6.1518,-6.1582,-6.1636,-6.1667,-6.1707,-6.176,-6.1833,-6.1813,-6.1842,-6.1842,-6.1885,-6.1972,-6.1857,-6.1858,-6.1877,-6.2078,-6.2096,-6.2113,-6.1962,-6.1965,-6.1967,-6.2075,0,-6.1421,-6.1535,-6.1543,-6.1646,-6.17,-6.1687,-6.1742,-6.1777,-6.1792,-6.1839,-6.1854,-6.1907,-6.1876,-6.1894,-6.1935,-6.1953,-6.2012,-6.1945,-6.201,-6.2013,-6.2001,-6.2131,-6.2149,-6.225,-6.2089,-6.2092,-6.2093,0,-6.1556,-6.1603,-6.1712,-6.1755,-6.1777,-6.1827,-6.1879,-6.1924,-6.1963,-6.1971,-6.2005,-6.2,-6.2063,-6.2018,-6.2105,-6.206,-6.2087,-6.2099,-6.2103,-6.2109,-6.2058,-6.2141,-6.2282,-6.2297,-6.2115,-6.2114,-6.2112,0,-6.1635,-6.1725,-6.1802,-6.1825,-6.1876,-6.1912,-6.1934,-6.1971,-6.2004,-6.2048,-6.2069,-6.2119,-6.2146,-6.2185,-6.2192,-6.2158,-6.228,-6.2235,-6.2287,-6.2287,-6.2313,-6.2311,-6.2461,-6.2331,-6.2331,-6.233,-6.233,0,-6.1749,-6.1816,-6.1839,-6.1886,-6.1961,-6.1968,-6.2042,-6.2061,-6.2094,-6.2144,-6.2135,-6.2182,-6.2189,-6.2237,-6.2243,-6.2315,-6.2327,-6.2334,-6.2335,-6.2335,-6.2334,-6.2353,-6.2346,-6.2334,-6.2333,-6.2333,-6.2332,0,-6.1849,-6.1867,-6.1951,-6.1993,-6.2006,-6.2059,-6.2094,-6.2139,-6.2154,-6.2217,-6.2232,-6.2254,-6.2311,-6.2322,-6.2388,-6.2392,-6.2478,-6.2471,-6.2465,-6.2465,-6.2516,-6.2511,-6.2682,-6.2705,-6.2561,-6.2562,-6.2563,0,-6.1921,-6.1973,-6.2022,-6.2056,-6.2081,-6.2136,-6.217,-6.2179,-6.2215,-6.2265,-6.2303,-6.2359,-6.2404,-6.2494,-6.2515,-6.2565,-6.256,-6.2617,-6.2567,-6.2566,-6.2561,-6.2558,-6.2563,-6.2626,-6.2627,-6.2629,-6.263,0,-6.2046,-6.2053,-6.2104,-6.2159,-6.2201,-6.2244,-6.2284,-6.2312,-6.2327,-6.2367,-6.2426,-6.2461,-6.253,-6.2585,-6.2636,-6.2657,-6.2646,-6.2645,-6.266,-6.2661,-6.2655,-6.2659,-6.2491,-6.2641,-6.264,-6.2639,-6.2638,-6.2638,-6.2134,-6.218,-6.2223,-6.228,-6.2313,-6.2351,-6.2396,-6.2418,-6.2468,-6.2526,-6.2528,-6.2592,-6.263,-6.2698,-6.2722,-6.2771,-6.2753,-6.2774,-6.278,-6.2785,-6.279,-6.2648,-6.278,-6.278,-6.2779,-6.2779,-6.2779,0,-6.226,-6.2287,-6.234,-6.2399,-6.2444,-6.2432,-6.2477,-6.2515,-6.2572,-6.261,-6.2655,-6.2723,-6.2777,-6.2803,-6.2856,-6.289,-6.2886,-6.2903,-6.2901,-6.2906,-6.2803,-6.2785,-6.2906,-6.2906,-6.2906,-6.2906,-6.2906,-6.2906,-6.233,-6.2408,-6.242,-6.2513,-6.2539,-6.2604,-6.2631,-6.2666,-6.2696,-6.2774,-6.2819,-6.2837,-6.2869,-6.2925,-6.2973,-6.2979,-6.2999,-6.3019,-6.3023,-6.2926,-6.2913,-6.2901,-6.2884,-6.3023,-6.3024,-6.3122,-6.3123,-6.3123]}]]